| time (UTC) | temp F | wind direction | speed MPH | gust MPH | rain 1hr in | rain 24hr in | rain mn in | humidity % | barometer mb |
| 20260507120042 | 49 | 311 | 3.0 | 8.0 | 0.01 | 0.15 | 0.10 | 87 | 1007.5 |
| 20260507114608 | 49 | 300 | 3.0 | 6.0 | 0.00 | 0.14 | 0.09 | 88 | 1007.3 |
| 20260507113047 | 48 | 328 | 2.0 | 4.0 | 0.00 | 0.14 | 0.09 | 89 | 1007.5 |
| 20260507111550 | 48 | 339 | 1.0 | 4.0 | 0.00 | 0.14 | 0.09 | 89 | 1007.3 |
| 20260507110046 | 48 | 296 | 1.0 | 3.0 | 0.01 | 0.14 | 0.09 | 89 | 1007.6 |
| 20260507104550 | 48 | 207 | 1.0 | 3.0 | 0.02 | 0.14 | 0.09 | 89 | 1007.5 |
| 20260507103047 | 48 | 0 | 1.0 | 2.0 | 0.02 | 0.14 | 0.09 | 89 | 1007.0 |
| 20260507101557 | 48 | 338 | 1.0 | 3.0 | 0.05 | 0.14 | 0.09 | 88 | 1007.1 |
| 20260507100056 | 48 | 307 | 2.0 | 8.0 | 0.05 | 0.13 | 0.08 | 87 | 1006.9 |
| 20260507094549 | 49 | 16 | 2.0 | 9.0 | 0.05 | 0.12 | 0.07 | 87 | 1006.8 |
| 20260507093048 | 49 | 333 | 4.0 | 10.0 | 0.05 | 0.12 | 0.07 | 87 | 1006.8 |
| 20260507091548 | 50 | 341 | 4.0 | 11.0 | 0.02 | 0.09 | 0.04 | 86 | 1006.8 |
| 20260507090050 | 50 | 306 | 3.0 | 10.0 | 0.02 | 0.08 | 0.03 | 85 | 1006.9 |
| 20260507084550 | 50 | 298 | 6.0 | 10.0 | 0.02 | 0.07 | 0.02 | 85 | 1006.6 |
| 20260507083105 | 50 | 316 | 4.0 | 10.0 | 0.02 | 0.07 | 0.02 | 85 | 1006.4 |
| 20260507081553 | 51 | 340 | 8.0 | 14.0 | 0.02 | 0.07 | 0.02 | 83 | 1006.6 |
| 20260507080050 | 52 | 319 | 7.0 | 16.0 | 0.01 | 0.06 | 0.01 | 82 | 1006.5 |
| 20260507074558 | 53 | 314 | 8.0 | 14.0 | 0.00 | 0.05 | 0.00 | 80 | 1006.6 |
| 20260507073058 | 53 | 310 | 7.0 | 15.0 | 0.00 | 0.05 | 0.00 | 81 | 1005.8 |
| 20260507071549 | 54 | 331 | 4.0 | 8.0 | 0.00 | 0.05 | 0.00 | 85 | 1006.0 |
| 20260507070047 | 54 | 290 | 3.0 | 13.0 | 0.00 | 0.05 | 0.00 | 85 | 1005.8 |
| 20260507064550 | 54 | 295 | 4.0 | 8.0 | 0.00 | 0.05 | 0.00 | 86 | 1005.9 |
| 20260507063050 | 54 | 21 | 4.0 | 8.0 | 0.00 | 0.05 | 0.00 | 87 | 1005.7 |
| 20260507061545 | 55 | 322 | 5.0 | 11.0 | 0.00 | 0.05 | 0.00 | 86 | 1005.7 |
| 20260507060043 | 55 | 317 | 5.0 | 11.0 | 0.00 | 0.05 | 0.00 | 86 | 1005.9 |
| 20260507054546 | 56 | 285 | 7.0 | 13.0 | 0.00 | 0.05 | 0.00 | 86 | 1006.1 |
| 20260507053048 | 56 | 330 | 7.0 | 12.0 | 0.00 | 0.05 | 0.00 | 87 | 1005.9 |
| 20260507051550 | 57 | 302 | 3.0 | 8.0 | 0.00 | 0.05 | 0.00 | 87 | 1005.8 |
| 20260507050050 | 58 | 326 | 5.0 | 13.0 | 0.00 | 0.05 | 0.00 | 87 | 1005.8 |
| 20260507044549 | 59 | 269 | 5.0 | 11.0 | 0.00 | 0.05 | 0.00 | 90 | 1005.7 |
| 20260507043045 | 59 | 247 | 3.0 | 9.0 | 0.01 | 0.05 | 0.00 | 91 | 1005.8 |
| 20260507041548 | 59 | 249 | 4.0 | 9.0 | 0.01 | 0.05 | 0.00 | 92 | 1005.9 |
| 20260507040046 | 59 | 260 | 4.0 | 8.0 | 0.01 | 0.05 | 0.00 | 92 | 1006.0 |
| 20260507034547 | 59 | 264 | 4.0 | 9.0 | 0.01 | 0.05 | 0.05 | 91 | 1005.7 |
| 20260507033042 | 59 | 234 | 7.0 | 15.0 | 0.00 | 0.04 | 0.04 | 90 | 1005.7 |
| 20260507031541 | 59 | 255 | 7.0 | 12.0 | 0.00 | 0.04 | 0.04 | 90 | 1005.3 |
| 20260507030050 | 59 | 222 | 4.0 | 13.0 | 0.00 | 0.04 | 0.04 | 90 | 1005.1 |
| 20260507024601 | 59 | 263 | 8.0 | 13.0 | 0.00 | 0.04 | 0.04 | 90 | 1005.4 |
| 20260507023047 | 59 | 233 | 6.0 | 12.0 | 0.00 | 0.04 | 0.04 | 90 | 1005.5 |
| 20260507021551 | 58 | 255 | 6.0 | 12.0 | 0.00 | 0.04 | 0.04 | 90 | 1005.4 |
| 20260507020107 | 58 | 214 | 4.0 | 11.0 | 0.00 | 0.04 | 0.04 | 90 | 1005.6 |
| 20260507014605 | 58 | 245 | 6.0 | 12.0 | 0.00 | 0.04 | 0.04 | 91 | 1005.7 |
| 20260507013053 | 58 | 210 | 6.0 | 10.0 | 0.00 | 0.04 | 0.04 | 91 | 1005.8 |
| 20260507011551 | 57 | 295 | 8.0 | 13.0 | 0.00 | 0.04 | 0.04 | 91 | 1005.9 |
| 20260507010050 | 57 | 210 | 7.0 | 12.0 | 0.00 | 0.04 | 0.04 | 91 | 1006.0 |
| 20260507004553 | 57 | 224 | 5.0 | 14.0 | 0.00 | 0.04 | 0.04 | 91 | 1005.9 |
| 20260507003047 | 56 | 207 | 8.0 | 14.0 | 0.01 | 0.04 | 0.04 | 91 | 1006.0 |
| 20260507001553 | 56 | 186 | 5.0 | 16.0 | 0.02 | 0.04 | 0.04 | 91 | 1005.8 |
| 20260507000049 | 56 | 238 | 5.0 | 13.0 | 0.02 | 0.04 | 0.04 | 91 | 1005.7 |
| 20260506234552 | 56 | 219 | 5.0 | 10.0 | 0.02 | 0.04 | 0.04 | 91 | 1005.8 |
| 20260506233048 | 57 | 185 | 4.0 | 13.0 | 0.01 | 0.03 | 0.03 | 91 | 1005.7 |
| 20260506231557 | 57 | 207 | 6.0 | 17.0 | 0.00 | 0.02 | 0.02 | 90 | 1005.8 |
| 20260506230055 | 57 | 178 | 6.0 | 16.0 | 0.00 | 0.02 | 0.02 | 90 | 1005.8 |
| 20260506224552 | 58 | 247 | 8.0 | 18.0 | 0.00 | 0.02 | 0.02 | 90 | 1005.7 |
| 20260506223054 | 58 | 152 | 8.0 | 16.0 | 0.00 | 0.02 | 0.02 | 89 | 1005.9 |
| 20260506221549 | 59 | 230 | 6.0 | 15.0 | 0.00 | 0.02 | 0.02 | 89 | 1006.0 |
| 20260506220049 | 60 | 207 | 7.0 | 18.0 | 0.00 | 0.02 | 0.02 | 88 | 1006.4 |
| 20260506214547 | 60 | 224 | 9.0 | 16.0 | 0.01 | 0.02 | 0.02 | 87 | 1006.6 |
| 20260506213102 | 60 | 180 | 8.0 | 14.0 | 0.01 | 0.02 | 0.02 | 86 | 1006.6 |
| 20260506211603 | 60 | 172 | 7.0 | 15.0 | 0.01 | 0.02 | 0.02 | 86 | 1006.7 |
| 20260506210050 | 60 | 217 | 7.0 | 17.0 | 0.01 | 0.02 | 0.02 | 85 | 1006.8 |
| 20260506204555 | 61 | 225 | 8.0 | 19.0 | 0.01 | 0.01 | 0.01 | 82 | 1006.9 |
| 20260506203049 | 61 | 241 | 8.0 | 20.0 | 0.01 | 0.01 | 0.01 | 81 | 1006.9 |
| 20260506201600 | 61 | 219 | 8.0 | 19.0 | 0.01 | 0.01 | 0.01 | 81 | 1006.5 |
| 20260506200058 | 62 | 228 | 8.0 | 17.0 | 0.01 | 0.01 | 0.01 | 80 | 1006.6 |
| 20260506194558 | 62 | 205 | 7.0 | 16.0 | 0.00 | 0.00 | 0.00 | 78 | 1007.0 |
| 20260506193046 | 63 | 256 | 7.0 | 15.0 | 0.00 | 0.00 | 0.00 | 76 | 1007.0 |
| 20260506191550 | 64 | 236 | 8.0 | 17.0 | 0.00 | 0.00 | 0.00 | 73 | 1006.9 |
| 20260506190051 | 65 | 240 | 10.0 | 20.0 | 0.00 | 0.00 | 0.00 | 72 | 1006.9 |
| 20260506184546 | 65 | 202 | 12.0 | 21.0 | 0.00 | 0.00 | 0.00 | 71 | 1007.0 |
| 20260506183058 | 65 | 229 | 8.0 | 16.0 | 0.00 | 0.00 | 0.00 | 71 | 1007.0 |
| 20260506181548 | 66 | 214 | 9.0 | 19.0 | 0.00 | 0.00 | 0.00 | 69 | 1007.2 |
| 20260506180050 | 66 | 219 | 10.0 | 21.0 | 0.00 | 0.00 | 0.00 | 69 | 1007.4 |
| 20260506174546 | 66 | 194 | 12.0 | 19.0 | 0.00 | 0.00 | 0.00 | 70 | 1007.6 |
| 20260506173051 | 67 | 195 | 11.0 | 20.0 | 0.00 | 0.00 | 0.00 | 68 | 1007.7 |
| 20260506171546 | 66 | 169 | 8.0 | 16.0 | 0.00 | 0.00 | 0.00 | 70 | 1007.7 |
| 20260506164548 | 66 | 212 | 6.0 | 14.0 | 0.00 | 0.00 | 0.00 | 70 | 1007.9 |
| 20260506163102 | 66 | 155 | 6.0 | 13.0 | 0.00 | 0.00 | 0.00 | 69 | 1008.1 |
| 20260506161550 | 66 | 219 | 7.0 | 16.0 | 0.00 | 0.00 | 0.00 | 69 | 1008.4 |
| 20260506160048 | 67 | 194 | 5.0 | 17.0 | 0.00 | 0.00 | 0.00 | 68 | 1008.7 |
| 20260506154546 | 68 | 162 | 5.0 | 12.0 | 0.00 | 0.00 | 0.00 | 67 | 1009.0 |
| 20260506153047 | 68 | 195 | 8.0 | 20.0 | 0.00 | 0.00 | 0.00 | 66 | 1009.1 |
| 20260506151549 | 67 | 218 | 10.0 | 20.0 | 0.00 | 0.00 | 0.00 | 68 | 1009.3 |
| 20260506150049 | 66 | 207 | 11.0 | 22.0 | 0.00 | 0.00 | 0.00 | 70 | 1009.4 |
| 20260506144559 | 66 | 183 | 10.0 | 16.0 | 0.00 | 0.00 | 0.00 | 70 | 1009.3 |
| 20260506143045 | 65 | 154 | 11.0 | 22.0 | 0.00 | 0.00 | 0.00 | 72 | 1009.1 |
| 20260506141541 | 64 | 200 | 9.0 | 15.0 | 0.00 | 0.00 | 0.00 | 75 | 1009.1 |
| 20260506140052 | 63 | 176 | 5.0 | 12.0 | 0.00 | 0.00 | 0.00 | 76 | 1009.3 |
| 20260506134552 | 63 | 233 | 10.0 | 19.0 | 0.00 | 0.00 | 0.00 | 76 | 1009.6 |
| 20260506133048 | 63 | 184 | 11.0 | 18.0 | 0.00 | 0.00 | 0.00 | 76 | 1009.8 |
| 20260506131548 | 63 | 231 | 10.0 | 20.0 | 0.00 | 0.00 | 0.00 | 77 | 1009.6 |
| 20260506130059 | 62 | 280 | 11.0 | 17.0 | 0.00 | 0.00 | 0.00 | 78 | 1009.7 |
| 20260506124543 | 60 | 218 | 8.0 | 20.0 | 0.00 | 0.00 | 0.00 | 81 | 1009.8 |
| 20260506123049 | 60 | 269 | 11.0 | 19.0 | 0.00 | 0.00 | 0.00 | 81 | 1009.7 |
| 20260506121552 | 59 | 251 | 10.0 | 18.0 | 0.00 | 0.00 | 0.00 | 82 | 1009.5 |